Flight Track Log - Related Links

Times and Time Zones

All times are in EDT time to prevent confusion due to time zone crossing. See the KAP927 flight status page for this flight to view local times or setup timezone preferences in your user account.

Time Position Orientation Groundspeed Altitude Reporting Facility
EDT Latitude Longitude Course Direction KTS MPH feet Rate Location/Type
14:20 42.8044 -73.8297 341° North 121 139 1,700  Level Boston Center
14:21 42.8356 -73.8444 341° North 116 133 2,400 590 Climbing Boston Center
14:22 42.8667 -73.8536 348° North 113 130 2,900 567 Climbing Boston Center
14:23 42.9042 -73.8714 341° North 128 147 3,600 541 Climbing Boston Center
14:24 42.9414 -73.8836 346° North 135 155 4,100 403 Climbing Boston Center
14:25 42.9808 -73.9017 341° North 137 158 4,500 275 Climbing Boston Center
14:26 43.0119 -73.9108 348° North 148 170 4,600 58 Climbing Boston Center
14:27 43.0556 -73.9261 346° North 169 194 4,600  Level Boston Center
14:28 43.1011 -73.9472 341° North 174 200 4,600  Level Boston Center
14:29 43.1467 -73.9653 344° North 175 201 4,600 -49 Level Boston Center
14:30 43.1944 -73.9864 342° North 175 201 4,500  Descending Boston Center
14:30 43.2153 -73.9869 359° North 176 203 4,600 72 Climbing Boston Center
14:31 43.2586 -74.0081 340° North 176 203 4,600  Level Boston Center
14:32 43.3022 -74.0233 346° North 181 208 4,600  Level Boston Center
14:33 43.3458 -74.0417 343° North 173 199 4,600 150 Level Boston Center
14:34 43.3786 -74.0742 324° Northwest 155 178 4,900 400 Climbing Boston Center
14:35 43.4094 -74.1064 323° Northwest 147 169 5,400 550 Climbing Boston Center
14:36 43.4403 -74.1386 323° Northwest 142 163 6,000 700 Climbing Boston Center
14:37 43.4711 -74.1708 323° Northwest 136 157 6,800 700 Climbing Boston Center
14:38 43.4997 -74.2003 323° Northwest 136 157 7,400 550 Climbing Boston Center
14:39 43.5325 -74.2328 324° Northwest 136 157 7,900 500 Climbing Boston Center
14:40 43.5656 -74.2625 327° Northwest 136 157 8,400 400 Climbing Boston Center
14:41 43.5983 -74.2978 322° Northwest 136 157 8,700 300 Climbing Boston Center
14:42 43.6350 -74.3364 323° Northwest 149 171 9,000 450 Climbing Boston Center
14:43 43.6678 -74.3717 322° Northwest 149 171 9,600 550 Climbing Boston Center
14:44 43.7006 -74.4044 324° Northwest 149 171 10,100 450 Climbing Boston Center
14:45 43.7333 -74.4428 320° Northwest 149 171 10,500 250 Climbing Boston Center
14:46 43.7703 -74.4786 325° Northwest 149 171 10,600 -50 Climbing Boston Center
14:47 43.8092 -74.5172 324° Northwest 160 184 10,400 -500 Descending Boston Center
14:48 43.8542 -74.5619 324° Northwest 177 204 9,600 -650 Descending Boston Center
14:49 43.8969 -74.6067 323° Northwest 191 220 9,100 -500 Descending Boston Center
14:50 43.9400 -74.6544 321° Northwest 197 227 8,600 -600 Descending Boston Center
14:51 43.9831 -74.6936 327° Northwest 197 227 7,900 -700 Descending Boston Center
14:52 44.0258 -74.7356 325° Northwest 197 227 7,200 -450 Descending Boston Center
14:53 44.0667 -74.7775 324° Northwest 192 221 7,000 -250 Descending Boston Center
14:54 44.1075 -74.8169 325° Northwest 192 221 6,700 -300 Descending Boston Center
14:55 44.1464 -74.8561 324° Northwest 187 215 6,400 -350 Descending Boston Center
14:56 44.1872 -74.8983 323° Northwest 187 215 6,000 -350 Descending Boston Center
14:57 44.2300 -74.9406 325° Northwest 182 209 5,700 -300 Descending Boston Center
14:58 44.2708 -74.9828 323° Northwest 182 209 5,400 -350 Descending Boston Center
14:59 44.3072 -75.0250 320° Northwest 177 204 5,000 -400 Descending Boston Center
15:00 44.3461 -75.0617 326° Northwest 177 204 4,600 -200 Descending Boston Center
15:01 44.3847 -75.1039 322° Northwest 177 204 4,600 -200 Level Boston Center
15:02 44.4172 -75.1375 324° Northwest 177 204 4,200 -400 Descending Boston Center
15:03 44.4639 -75.1889 322° Northwest 177 204 3,800 -350 Descending Boston Center
15:04 44.5025 -75.2286 324° Northwest 177 204 3,500 -350 Descending Boston Center
15:05 44.5436 -75.2625 330° Northwest 172 198 3,100 -250 Descending Boston Center
15:06 44.5781 -75.2964 325° Northwest 172 198 3,000 -100 Descending Boston Center

Login

Don't have an account? Register now (free) for customized features, flight alerts, and more!